Teterboro, NJ

12:17 AM EDT on May 29, 2017 (GMT -0400)
Teterboro

Weather History for KTEB - November, 2012

Change the Weather History Date:

Saturday, November 10, 2012

  Actual Average Record
Temperature  
Mean Temperature 47 °F -  
Max Temperature 55 °F 52 °F 73 °F (1999)
Min Temperature 39 °F 36 °F 26 °F (2003)
Degree Days  
Heating Degree Days 18    
Moisture  
Dew Point 36 °F    
Average Humidity 65    
Maximum Humidity 79    
Minimum Humidity 53    
Precipitation  
Precipitation 0.00 in - - ()
Sea Level Pressure  
Sea Level Pressure 30.31 in    
Wind  
Wind Speed 2 mph (West)    
Max Wind Speed 5 mph    
Max Gust Speed -    
Visibility 9 miles    
Events      
Averages and records for this station are not official NWS values.
T = Trace of Precipitation, MM = Missing Value Source: NWS Daily Summary

Daily Weather History Graph

Daily Weather History Graph

Search for Another Location

Airport or City:

Trip Planner

Search our weather history database for the weather conditions in past years. The results will help you decide how hot, cold, wet, or windy it might be!

Date:

Astronomy

Nov. 10, 2012 Rise Set
Actual Time 6:37 AM EST 4:41 PM EST
Civil Twilight 6:08 AM EST 5:11 PM EST
Nautical Twilight 5:35 AM EST 5:43 PM EST
Astronomical Twilight 5:03 AM EST 6:16 PM EST
Moon 2:38 AM EST (11/10) 2:28 PM EST (11/10)
Length of Visible Light 11h 02m
Length of Day
10h 03m
Waning Crescent, 14% of the Moon is Illuminated
Nov 10
Waning Crescent
Nov 13
New
Nov 20
First Quarter
Nov 28
Full
Dec 6
Last Quarter

Hourly Weather History & Observations

Time (EST) Temp. Windchill Dew Point Humidity Pressure Visibility Wind Dir Wind Speed Gust Speed Precip Events Conditions
12:51 AM 39.0 °F - 30.9 °F 73% 30.20 in 10.0 mi Calm Calm - N/A   Clear
1:51 AM 41.0 °F 39.0 °F 32.0 °F 70% 30.21 in 10.0 mi West 3.5 mph - N/A   Clear
2:51 AM 41.0 °F 38.0 °F 32.0 °F 70% 30.22 in 10.0 mi WNW 4.6 mph - N/A   Clear
3:51 AM 41.0 °F 38.0 °F 32.0 °F 70% 30.23 in 10.0 mi WNW 4.6 mph - N/A   Clear
4:51 AM 39.0 °F - 32.0 °F 76% 30.25 in 10.0 mi Calm Calm - N/A   Clear
5:51 AM 39.9 °F - 33.1 °F 77% 30.26 in 10.0 mi Calm Calm - N/A   Clear
6:51 AM 41.0 °F - 33.1 °F 73% 30.28 in 10.0 mi Calm Calm - N/A   Clear
7:51 AM 45.0 °F 42.6 °F 36.0 °F 71% 30.32 in 9.0 mi West 4.6 mph - N/A   Clear
8:51 AM 46.9 °F - 37.0 °F 68% 30.32 in 8.0 mi West 4.6 mph - N/A   Partly Cloudy
9:51 AM 51.1 °F - 39.0 °F 63% 30.32 in 7.0 mi WNW 4.6 mph - N/A   Partly Cloudy
10:51 AM 52.0 °F - 37.9 °F 59% 30.31 in 8.0 mi Calm Calm - N/A   Mostly Cloudy
11:51 AM 54.0 °F - 37.9 °F 55% 30.30 in 9.0 mi Calm Calm - N/A   Overcast
12:51 PM 55.0 °F - 37.9 °F 53% 30.30 in 10.0 mi NNW 4.6 mph - N/A   Overcast
1:51 PM 55.0 °F - 37.9 °F 53% 30.30 in 10.0 mi West 3.5 mph - N/A   Overcast
2:51 PM 55.0 °F - 37.9 °F 53% 30.31 in 9.0 mi Calm Calm - N/A   Overcast
3:51 PM 54.0 °F - 39.0 °F 57% 30.32 in 9.0 mi SSW 4.6 mph - N/A   Overcast
4:51 PM 54.0 °F - 37.9 °F 55% 30.33 in 10.0 mi South 3.5 mph - N/A   Overcast
5:51 PM 53.1 °F - 39.0 °F 59% 30.36 in 10.0 mi Calm Calm - N/A   Overcast
6:51 PM 53.1 °F - 37.9 °F 57% 30.37 in 10.0 mi Calm Calm - N/A   Overcast
7:51 PM 51.1 °F - 37.9 °F 61% 30.38 in 10.0 mi Calm Calm - N/A   Scattered Clouds
8:51 PM 50.0 °F - 39.0 °F 66% 30.39 in 9.0 mi Calm Calm - N/A   Clear
9:51 PM 45.0 °F 43.5 °F 37.9 °F 76% 30.41 in 9.0 mi SSW 3.5 mph - N/A   Clear
10:51 PM 45.0 °F - 37.0 °F 74% 30.41 in 9.0 mi Calm Calm - N/A   Clear
11:51 PM 44.1 °F - 37.9 °F 79% 30.42 in 8.0 mi Calm Calm - N/A   Scattered Clouds